Flag for Germany Weather past 2 weeks in Leimen, Baden-Württemberg, Germany

Now
68 °F

Passing clouds.


Feels Like: 68 °F
Forecast: 48 / 67 °F
Wind: 6 mph from Northwest

Location: Baden Wurttemberg - Neuostheim

Current Time: Sep 3, 2015 at 2:57:57 PM

Latest Report: Sep 3, 2015 at 2:20 PM


Visibility: N/A

Pressure: 29.95 "Hg

Humidity: 43%

Dew point: 45 °F

Location of LeimenLocation

Historic Weather in Leimen — Graph

°F

Leimen temperature yesterday

Maximum temperature yesterday: 72 °F (at 4:20 PM)
Minimum temperature yesterday: 59 °F (at 5:50 AM)
Average temperature yesterday: 66 °F

Past Weeks' High & Low Weather Summary

 TemperatureHumidityPressure
High93 °F (Aug 30, 4:50 PM)100% (Aug 21, 6:50 AM)30.27 "Hg (Aug 21, 6:50 AM)
Low54 °F (Aug 21, 5:50 AM)21% (Aug 31, 4:20 PM)29.68 "Hg (Aug 23, 4:50 PM)
Average72 °F58%30.00 "Hg
* Reported Aug 19 1:20 PM — Sep 3 1:20 PM, Leimen, Weather by CustomWeather, © 2015

Note: Actual official high and low records may vary slightly from our data, if they occured in-between our weather recording intervals... More about our weather records

Advertising

Leimen weather history for previous 24 hours

 ConditionsComfort  
Time TempWeatherWind HumidityBarometerVisibility
1:20 PM
Thu, Sep 3
70 °FPassing clouds.8 mph43%29.95 "HgN/A
12:50 PM68 °FPassing clouds.8 mph43%29.95 "HgN/A
12:20 PM68 °FPassing clouds.5 mph46%29.95 "HgN/A
11:50 AM68 °FSunny.7 mph43%29.95 "Hg10 mi
11:20 AM68 °FPassing clouds.7 mph46%29.98 "HgN/A
10:50 AM66 °FPassing clouds.5 mph52%29.98 "HgN/A
10:20 AM64 °FSunny.2 mph56%29.98 "Hg10 mi
9:50 AM64 °FSunny.1 mph60%29.98 "Hg10 mi
9:20 AM64 °FSunny.2 mph60%29.98 "Hg10 mi
8:50 AM63 °FSunny.2 mph68%29.98 "Hg10 mi
8:20 AM61 °FSunny.3 mph72%29.98 "Hg10 mi
7:50 AM59 °FSunny.1 mph82%29.95 "Hg10 mi
7:20 AM57 °FClear.No wind82%29.95 "Hg10 mi
6:50 AM57 °FClear.1 mph82%29.95 "Hg10 mi
6:20 AM57 °FClear.2 mph82%29.95 "Hg10 mi
5:50 AM59 °FClear.1 mph72%29.95 "Hg10 mi
5:20 AM61 °FClear.1 mph72%29.95 "Hg10 mi
9:20 PM
Wed, Sep 2
66 °FClear.5 mph56%29.98 "Hg10 mi
8:50 PM66 °FSunny.6 mph56%29.98 "Hg10 mi
8:20 PM68 °FSunny.5 mph49%29.98 "Hg10 mi
7:50 PM70 °FSunny.2 mph50%29.98 "Hg10 mi
7:20 PM70 °FSunny.2 mph46%29.98 "Hg10 mi
6:50 PM70 °FPartly sunny.2 mph46%29.98 "HgN/A
6:20 PM70 °FSunny.3 mph46%29.98 "Hg10 mi
5:20 PM72 °FSunny.2 mph41%29.98 "Hg10 mi
4:50 PM70 °FPartly sunny.3 mph43%29.98 "HgN/A
4:20 PM72 °FPartly sunny.3 mph44%29.98 "HgN/A
3:50 PM70 °FPartly sunny.5 mph50%29.98 "HgN/A
3:20 PM70 °FPartly sunny.5 mph50%30.01 "HgN/A
2:50 PM70 °FPartly sunny.5 mph50%30.01 "HgN/A
2:20 PM70 °FPartly sunny.3 mph50%30.01 "HgN/A
Weather by CustomWeather, © 2015

See weather overviewHow to use our weather pages